Weather in Yerokko

Russia / The Kabardino-Balkar Republic     43°19′01″N   43°52′43″E
temp.,
°C
wind,
m/s
gust,
m/s
humid.,
%
clouds,
%
prec.,
mm/h
press.,
hPa
HPBL,
m
2 march, tue
tue200:00−2sw2281100 0.0 102925
03:00−2sw2272100 0.0 103024
06:00−3wsw226723 0.0 103024
09:00+1nw115912 0.0 1029145
12:00+4nne11660 0.0 1027571
15:00+4e01684 0.0 1025633
18:000sw128111 0.0 102625
21:00−1sw23726 0.0 102727
3 march, wed
wed300:00−2sw22690 0.0 102527
03:00−2wnw11700 0.0 102422
06:00−3wsw117139 0.0 102322
09:00+1n236947 0.0 1022315
12:00+3nne227167 0.0 1020651
15:00+4wnw016883 0.0 1019565
18:00+1nnw2386100 0.1 1022120
21:000nnw0297100 1.9 1026166
4 march, thu
thu400:00−1sse1298100 1.5 1027129
03:00−2e1298100 3.9 1028118
06:00−3sse1297100 1.1 102985
09:00−1sse238886 1.2 1028378
12:00+1sse238314 0.0 1026500
15:00+3sse22758 0.0 1024504
18:000s11810 0.0 102521
21:00−1sw22770 0.0 102525
5 march, fri
fri500:00−2sw22720 0.0 102424
03:00−2wsw22690 0.0 102322
06:00−2sw12640 0.0 102222
09:00+2ese11570 0.0 1021166
12:00+6sse11520 0.0 1019440
15:00+7sse11500 0.0 1019479
18:00+3s11690 0.0 102022
21:00+2sw22680 0.0 102223
6 march, sat
sat600:00+1sw22610 0.0 102123
03:00+1sw22570 0.0 102122
06:00+1sw22540 0.0 102022
09:00+7s11504 0.0 101876
12:00+12se11402 0.0 1015286
15:00+12sse124135 0.0 1014350
18:00+8sw2354100 0.0 101522
21:00+5wsw3350100 0.0 101639